Simultaneous Nadir Overpasses (SNOs) Predictions

Prediction of SNOs between NOAA-20 and LANDSAT-8 Satellite Orbit:

Table of predicted SNOs for the next 14.0 days since TLE Epoch: 10/17/2023
Index Date (NOAA-20) Time (NOAA-20) Lat,Lon (NOAA-20) SZA (NOAA-20 ) Date (LANDSAT-8) Time (LANDSAT-8) Lat,Lon (LANDSAT-8) SZA (LANDSAT-8 ) Distance(km) Time Diff (sec)
1 10/18/2023 06:32:35 70.30, 77.94 79.74 10/18/2023 06:33:46 70.26, 78.27 79.70 13.15 71
2 10/18/2023 07:23:14 -70.07,-114.38 100.49 10/18/2023 07:23:17 -70.09,-114.34 100.47 3.15 3
3 10/18/2023 08:13:58 69.94, 53.11 79.40 10/18/2023 08:12:45 69.93, 53.08 79.39 1.84 73
4 10/20/2023 22:49:22 70.14,-166.01 80.54 10/20/2023 22:50:16 70.11,-166.06 80.51 3.06 54
5 10/20/2023 23:40:04 -70.05, 1.43 99.54 10/20/2023 23:39:45 -70.06, 1.50 99.54 2.59 19
6 10/21/2023 00:30:33 69.14, 170.07 79.57 10/21/2023 00:29:26 69.17, 167.94 79.60 84.27 67
7 10/23/2023 15:06:10 70.09, -50.15 81.43 10/23/2023 15:06:42 70.09, -50.20 81.43 2.08 32
8 10/23/2023 15:56:52 -70.00, 117.30 98.64 10/23/2023 15:56:12 -69.98, 117.28 98.67 2.56 40
9 10/26/2023 06:32:25 -70.68,-102.61 97.06 10/26/2023 06:33:34 -70.57,-101.25 97.17 51.61 69
10 10/26/2023 07:22:59 70.05, 65.70 82.32 10/26/2023 07:23:08 70.07, 65.67 82.35 3.10 9
11 10/26/2023 08:13:41 -69.96,-126.85 97.76 10/26/2023 08:12:38 -69.97,-126.84 97.75 1.11 63
12 10/28/2023 22:49:04 -70.13, 14.06 96.71 10/28/2023 22:50:07 -70.14, 14.02 96.70 2.08 63
13 10/28/2023 23:39:48 70.02,
